Regional Weather Roundup
Issued by NWS Grand Forks, ND

Home | Current Version | Previous Version | Graphics & Text | Print | Product List | Glossary On
Versions: 1 2 3 4 5 6 7 8 9 10 11 12 13 14 15 16 17 18 19 20 21 22 23 24 25 26 27 28 29 30 31 32 33 34 35 36 37 38 39 40 41 42 43 44 45 46 47 48 49 50
000
ASUS43 KFGF 231531
RWRFGF
PRAIRIE TO PINES  WEATHER ROUNDUP
NATIONAL WEATHER SERVICE EASTERN NORTH DAKOTA/GRAND FORKS ND
900 AM CST MON JAN 23 2017

 **SATELLITE DATA USED TO AUGMENT SKY COVER AT AUTOMATED STATIONS**
 *****  WEATHER ACROSS EASTERN NORTH DAKOTA  *****

CITY           SKY/WX    TMP DP  RH WIND       PRES   REMARKS
GRAND FORKS    CLOUDY    31  24  75 W12       29.78R WCI  22
GRAND FRKS AFB CLOUDY    30  23  77 W8        29.78R WCI  22
DEVILS LAKE    CLOUDY    26  22  84 W10       29.78R WCI  16
FARGO          CLOUDY    35  28  75 W8        29.81R
WAHPETON ARPT  CLOUDY    32  28  86 W9        29.83R WCI  24
$$

 ***** WEATHER ACROSS CENTRAL AND WESTERN NORTH DAKOTA  *****

CITY           SKY/WX    TMP DP  RH WIND       PRES   REMARKS
BISMARCK       CLOUDY    29  23  78 CALM      29.80F
MINOT          CLOUDY    26  21  81 W10       29.76R WCI  16
JAMESTOWN      CLOUDY    29  23  78 W8        29.81R WCI  21
MINOT AFB      CLOUDY    25  20  83 W10       29.75S WCI  14
GARRISON         N/A     27  23  85 W6        29.76S WCI  20
WILLISTON      CLOUDY    24  20  84 N6        29.79R WCI  17
DICKINSON      CLOUDY    23  19  85 E6        29.71F WCI  16
HETTINGER      FOG       22  21  96 E7        29.74F VSB 1/4 WCI  13
$$

 *****  OTHER AIRPORT OBSERVATIONS IN OUR AREA  *****

CITY           SKY/WX    TMP DP  RH WIND       PRES   REMARKS
WALHALLA       NOT AVBL
GRAFTON AIRPOR CLOUDY    28  27  93 W14       29.79R WCI  17
VALLEY CITY AR CLOUDY    28  28 100 W7        29.83R WCI  21
CANDO          NOT AVBL
CAVALIER APRT  CLOUDY    30  27  86 SW7       29.75R WCI  23
GWINNER        CLOUDY    32  28  86 W7        29.84R
SHEYENNE NWR     N/A     32  26  79 W5        29.95S
ROLLA            N/A    N/A N/A N/A MISG        N/A
 ***** THE ABOVE OBSERVATIONS ARE NON NWS ARE NOT QUALITY
       CONTROLLED AND MAY MIS-REPORT RAIN FOR SNOW...
$$

  *****  WEATHER ACROSS NORTHERN MINNESOTA  *****

CITY           SKY/WX    TMP DP  RH WIND       PRES   REMARKS
FLAG ISLAND    LGT SNOW  32  30  93 SW5       29.72S
WARROAD        CLOUDY    30  27  86 SW5       29.74S
ROSEAU         CLOUDY    30  27  86 SW5       29.74S
HALLOCK        CLOUDY    30  28  93 SW6       29.74F WCI  24
THF RVR FALLS  CLOUDY    30  28  93 SW9       29.76F WCI  22
BAUDETTE       CLOUDY    32  31  96 SW3       29.73F FOG
WASKISH        CLOUDY    30  30 100 SW7       29.75S WCI  23
CROOKSTON      CLOUDY    30  28  93 W9        29.79R WCI  22
STEPHEN NDAWN    N/A     30  28  93 SW3         N/A
GREENBUSH NDAW   N/A     30  28  93 SW3         N/A
$$
  *****  WEATHER ACROSS CENTRAL AND WEST MINNESOTA  *****

CITY           SKY/WX    TMP DP  RH WIND       PRES   REMARKS
FOSSTON        CLOUDY    28  27  93 SW3       29.76S FOG
BEMIDJI        CLOUDY    30  28  92 CALM      29.74F
PARK RAPIDS    CLOUDY    32  25  75 NW7       29.75F
ELBOW LAKE     CLOUDY    31  28  88 NW8       29.82R FOG     WCI  24
WADENA         CLOUDY    30  27  86 NW6       29.77R WCI  24
DETROIT LAKES  CLOUDY    32  28  86 W7        29.79R
MOORHEAD       CLOUDY    32  27  80 W6        29.82R
FERGUS FALLS   CLOUDY    32  30  93 W7        29.85R
MORRIS MN      CLOUDY    34  30  86 W7        29.82R
STAPLES        CLOUDY    28  28 100 NW3       29.77S
$$
  *****  WEATHER ELSEWHERE ACROSS MINNESOTA  *****

CITY           SKY/WX    TMP DP  RH WIND       PRES   REMARKS
DULUTH         MOCLDY    33  33 100 NW6       29.75R
INTRNTL FALLS  CLOUDY    32  31  96 W8        29.74S FOG     WCI  25
ELY            CLOUDY    34  34 100 CALM      29.74S
CLOQUET        CLOUDY    34  34 100 W3        29.76R
WHEATON        CLOUDY    37  34  87 W5        29.86R
BRAINERD       LGT SNOW  31  30  96 CALM      29.77F FOG
HIBBING        FOG       32  32 100 W3        29.75S VSB 3/4
ALEXANDRIA     CLOUDY    31  27  85 NW8       29.79S WCI  23
SAINT CLOUD    LGT SNOW  32  31  96 CALM      29.79S VSB 1
MINNEAPOLIS    CLOUDY    34  32  92 CALM      29.81S FOG
$$

  *****  WEATHER ACROSS SOUTH DAKOTA  *****

CITY           SKY/WX    TMP DP  RH WIND       PRES   REMARKS
SIOUX FALLS    FLURRIES  30  28  92 W7        29.87R WCI  23
BROOKINGS      CLOUDY    29  26  89 NW9       29.84R WCI  20
WATERTOWN      CLOUDY    28  26  92 W9        29.82R WCI  19
HURON          CLOUDY    29  26  89 CALM      29.87R
SISSETON         N/A     32  28  85 NW7       29.83R
ABERDEEN       CLOUDY    30  24  78 SW3       29.86R
MITCHELL       CLOUDY    30  26  85 CALM      29.88R
PIERRE         CLOUDY    26  23  88 E12       29.78F WCI  16
MOBRIDGE       CLOUDY    29  23  78 CALM      29.79S
RAPID CITY     CLOUDY    21  19  92 SE5       29.66F WCI  15
$$

  *****  SOME WEATHER IN NEARBY STATES *****

CITY           SKY/WX    TMP DP  RH WIND       PRES   REMARKS
GLASGOW MT     LGT SNOW  26  24  92 CALM      29.75S VSB 3/4
GREAT FALLS MT CLOUDY    22  19  89 W5        29.72R WCI  16
CHEYENNE WY    FAIR      28  19  69 W8        29.60R WCI  20
SCOTTSBLUFF NE FAIR      27  21  78 E5        29.63F WCI  22
OMAHA NE       CLOUDY    33  27  78 NW5       29.90S
DES MOINES IA  CLOUDY    33  29  85 N6        29.87R
DAVENPORT IA   CLOUDY    36  34  92 NW9       29.83R
CHICAGO IL     CLOUDY    38  35  89 N10G21    29.77R
EAU CLAIRE WI  SNOW      33  33 100 SW5       29.81R VSB 1/2
LA CROSSE WI   CLOUDY    38  34  85 CALM      29.83R FOG
$$

  *****  SOME NATIONAL WEATHER *****

CITY           SKY/WX    TMP DP  RH WIND       PRES   REMARKS
LA GUARDIA NY  CLOUDY    42  30  62 E29G43    29.85S
RALEIGH NC     PTSUNNY   53  49  86 W14       29.28R
ATLANTA GA     CLOUDY    52  51  97 W14       29.36R
NEW ORLEANS LA FAIR      56  43  61 NW15G23   29.85R
OKLAHOMA CITY  FAIR      34  31  88 S5        29.91S
ALBUQUERQUE NM FAIR      32  28  85 SE9       29.97F WCI  24
SALT LAKE CITY MOCLDY    39  31  72 SE21G28   29.49F
LOS ANGELES CA MOCLDY    54  46  74 SW17      29.88S
BOISE ID       SNOW      27  26  96 NW7       29.60R VSB 1/2 WCI  19
SEATTLE WA     FAIR      36  33  89 NE5       29.72R
$$

*** WEATHER ACROSS MANITOBA...SASKATCHEWAN AND ONTARIO ***
                ***ONTARIO***

CITY           SKY/WX    TMP DP  RH WIND       PRES   REMARKS
GERALDTON      FOG       32  32 100 E3        29.74R VSB 1/8
THUNDER BAY    CLOUDY    34  34 100 NW2       29.76R
SIOUX LOOKOUT  FLURRIES  32  30  93 SE3       29.72S
TORONTO        CLOUDY    36  36 100 E8        29.81R FOG
BIG TROUT LK   LGT SNOW  23  21  93 SE3       29.81S
PICKLE LAKE    FLURRIES  27  25  93 E5        29.74S WCI  21
DRYDEN         FOG       32  32 100 S3        29.71S VSB 5/8
KENORA         LGT SNOW  32  32 100 SW7       29.71S FOG
$$
                *** MANITOBA***

CITY           SKY/WX    TMP DP  RH WIND       PRES   REMARKS
BRANDON        FLURRIES  23  19  86 W13       29.70S WCI  11
DAUPHIN        CLOUDY    28  23  80 W17       29.67S WCI  16
ISLAND LAKE    FLURRIES  28  27  93 NE3       29.75S
PILOT MOUND      N/A     25  21  86 W8          N/A  WCI  16
THE PAS        LGT SNOW  23  21  93 N7        29.77S WCI  15
THOMPSON       LGT SNOW  14  10  85 N8        29.87S DRFTSNOWWCI   3
WINNIPEG       MOCLDY    30  27  86 SW8       29.72S WCI  23
LYNN LAKE      LGT SNOW   5   3  92 NE12      29.92S WCI -11
CHURCHILL      CLOUDY    21  19  93 E14       30.03R FOG     WCI   8
GILLAM         LGT SNOW  21  19  93 NE9       29.87S WCI  11
$$
                ***SASKATCHEWAN***

CITY           SKY/WX    TMP DP  RH WIND       PRES   REMARKS
ESTEVAN        CLOUDY    21  18  86 W14       29.75S WCI   8
KINDERSLEY     FLURRIES  10   7  85 N6        29.81R WCI   1
LLOYDMINSTER   LGT SNOW   9   7  92 N7        29.84R WCI  -3
PRINCE ALBERT  FLURRIES  16  12  86 N8        29.81R WCI   5
REGINA         CLOUDY    18  14  86 NW14      29.75S WCI   4
YORKTON        CLOUDY    21  19  93 W10       29.68S WCI  10
N. BATTLEFORD  FLURRIES  10   9  92 NW10      29.85R WCI  -3
LA RONGE       FLURRIES  10   7  85 N6        29.89S WCI   1
SASKATOON      FLURRIES  14   9  79 N12       29.82S WCI   0
SWIFT CURRENT  CLOUDY    14  14 100 NW14      29.74R WCI  -1
$$
NOTE: THESE ARE AUTOMATED STATIONS WITH LIMITED QUALITY CONTROL
      "FAIR" INDICATES FEW OR NO CLOUDS BELOW 12,000 FEET WITH NO
      SIGNIFICANT WEATHER AND/OR OBSTRUCTIONS TO VISIBILITY.
      SKY/WX - SKY CONDITION AND SIGNIFICANT WEATHER.
      TMP - AIR TEMPERATURE.    DP   - DEWPOINT TEMPERATURE.
      RH  - RELATIVE HUMIDITY.  PRES - PRESSURE.
      HX  - HEAT INDEX.         WCI  - WIND CHILL INDEX.
$



USA.gov is the U.S. government's official web portal to all federal, state and local government web resources and services.